シューメーカー-レヴィ第5彗星

145P/Shoemaker-Levy 5 (2026)

English version
Home page
Updated on January 31, 2026

---------------------------------------------------------------------

・ プロフィール

・ 写真集

・ 軌道要素

Epoch 2025 May 5.0 TT = JDT 2460800.5
T 2026 Jan. 31.90047 TT                                 Pike
q   1.8898533            (2000.0)            P               Q
n   0.11740127     Peri.   10.40008     +0.79840283     -0.59564541
a   4.1306733      Node    26.77121     +0.53744444     +0.63900974
e   0.5424830      Incl.   11.27769     +0.27148922     +0.48669611
P   8.40
From 907 observations 1991 Sept. 12-2025 Aug. 1, mean residual 0".6.
     Nongravitational parameters A1 = +0.01, A2 = -0.0159.

・ 星図

・ 光度変化

        m1 = 9.0 + 5 logΔ + 20.0 log r(t - 40)

---------------------------------------------------------------------

軌道要素はM.P.E.C. 2025-P113に掲載されたものです。
星図はステラナビゲータ Ver.11 (アストロアーツ) で作成したものです。
光度グラフはComet for Windowsで作成したものです。

---------------------------------------------------------------------

Copyright(C) Seiichi Yoshida (comet@aerith.net). All rights reserved.